,,PA_Meas_PMT16A,,PR_Meas_QMR101_102,,RH_Meas_QMH101,,SR_Meas_QMS101,,TA_Meas_QMH101,,GenWind,,GenWind,
time,status,PA,status,PR,status,RH,status,SR,status,TA,status,DirAvg,status,SpdAvg,
2014-05-26, 06:32:04,VALID,916.228,VALID,0,VALID,96.2304,VALID,17.8352,VALID,20.2879,VALID,135,VALID,1.23711,
2014-05-26, 06:33:04,VALID,916.229,VALID,0,VALID,96.2761,VALID,18.1576,VALID,20.2879,VALID,134,VALID,1.10312,
2014-05-26, 06:34:04,VALID,916.243,VALID,0,VALID,96.3066,VALID,18.3724,VALID,20.3659,VALID,137,VALID,1.14688,
2014-05-26, 06:35:04,VALID,916.261,VALID,0,VALID,96.3371,VALID,18.8022,VALID,20.4439,VALID,126,VALID,0.967578,
2014-05-26, 06:36:04,VALID,916.262,VALID,0,VALID,96.3524,VALID,19.1245,VALID,20.4244,VALID,126,VALID,0.971875,
2014-05-26, 06:37:04,VALID,916.258,VALID,0,VALID,96.3447,VALID,19.5543,VALID,20.4439,VALID,126,VALID,0.80625,
2014-05-26, 06:38:04,VALID,916.293,VALID,0,VALID,96.3676,VALID,20.0915,VALID,20.4829,VALID,126,VALID,0.954687,
2014-05-26, 06:39:04,VALID,916.32,VALID,0,VALID,96.3752,VALID,20.951,VALID,20.5024,VALID,126,VALID,1.00156,
2014-05-26, 06:40:04,VALID,916.369,VALID,0,VALID,96.3676,VALID,21.8106,VALID,20.5609,VALID,129,VALID,1.32266,
2014-05-26, 06:41:04,VALID,916.399,VALID,0,VALID,96.3752,VALID,22.885,VALID,20.6585,VALID,137,VALID,1.1875,
2014-05-26, 06:42:04,VALID,916.424,VALID,0,VALID,96.3371,VALID,24.3891,VALID,20.717,VALID,146,VALID,1.35547,
2014-05-26, 06:43:04,VALID,916.425,VALID,0,VALID,96.3142,VALID,25.7859,VALID,20.795,VALID,157,VALID,1.39258,
2014-05-26, 06:44:04,VALID,916.453,VALID,0,VALID,96.2609,VALID,27.9347,VALID,20.8145,VALID,154,VALID,1.275,
2014-05-26, 06:45:04,VALID,916.468,VALID,0,VALID,96.1923,VALID,29.7612,VALID,20.8129,VALID,167,VALID,1.25078,
2014-05-26, 06:46:04,VALID,916.481,VALID,0,VALID,96.1313,VALID,30.8356,VALID,20.834,VALID,165,VALID,1.39375,
2014-05-26, 06:47:04,VALID,916.479,VALID,0,VALID,96.0932,VALID,31.8026,VALID,20.8535,VALID,159,VALID,1.02656,
2014-05-26, 06:48:04,VALID,916.463,VALID,0,VALID,96.0245,VALID,32.2323,VALID,20.873,VALID,150,VALID,1.07109,
2014-05-26, 06:49:04,VALID,916.462,VALID,0,VALID,95.9788,VALID,32.6621,VALID,20.873,VALID,142,VALID,1.03164,
2014-05-26, 06:50:04,VALID,916.446,VALID,0,VALID,95.895,VALID,33.5216,VALID,20.93,VALID,155,VALID,1.22187,
2014-05-26, 06:51:04,VALID,916.484,VALID,0,VALID,95.834,VALID,34.7035,VALID,20.9316,VALID,145,VALID,1.0668,
2014-05-26, 06:52:04,VALID,916.528,VALID,0,VALID,95.7349,VALID,35.7779,VALID,21.0096,VALID,144,VALID,1.17969,
2014-05-26, 06:53:04,VALID,916.563,VALID,0,VALID,95.5976,VALID,36.7449,VALID,21.008,VALID,131,VALID,1.15352,
2014-05-26, 06:54:04,VALID,916.586,VALID,0,VALID,95.4528,VALID,38.1416,VALID,21.086,VALID,128,VALID,2.22305,
2014-05-26, 06:55:04,VALID,916.637,VALID,0,VALID,95.2317,VALID,39.8607,VALID,21.2226,VALID,109,VALID,1.55859,
2014-05-26, 06:56:04,VALID,916.685,VALID,0,VALID,94.9039,VALID,41.4723,VALID,21.2811,VALID,131,VALID,1.01953,
2014-05-26, 06:57:04,VALID,916.709,VALID,0,VALID,94.4008,VALID,42.5467,VALID,21.3981,VALID,132,VALID,1.54375,
2014-05-26, 06:58:04,VALID,916.766,VALID,0,VALID,92.7922,VALID,43.9434,VALID,21.6128,VALID,139,VALID,2.12695,
2014-05-26, 06:59:04,VALID,916.75,VALID,0,VALID,91.5267,VALID,44.803,VALID,21.8485,VALID,128,VALID,1.15078,
2014-05-26, 07:00:04,VALID,916.757,VALID,0,VALID,90.4976,VALID,45.2327,VALID,21.8664,VALID,170,VALID,1.19961,
2014-05-26, 07:01:04,VALID,916.797,VALID,0,VALID,90.2155,VALID,46.4146,VALID,21.8485,VALID,160,VALID,1.54805,
2014-05-26, 07:02:04,VALID,916.81,VALID,0,VALID,90.4976,VALID,48.5634,VALID,21.7315,VALID,160,VALID,1.53789,
2014-05-26, 07:03:04,VALID,916.794,VALID,0,VALID,90.6805,VALID,50.9271,VALID,21.6924,VALID,146,VALID,1.30117,
2014-05-26, 07:04:04,VALID,916.793,VALID,0,VALID,90.65,VALID,53.0759,VALID,21.7315,VALID,140,VALID,0.641797,
2014-05-26, 07:05:04,VALID,916.762,VALID,0,VALID,90.4595,VALID,56.7289,VALID,21.7705,VALID,124,VALID,1.35742,
2014-05-26, 07:06:04,VALID,916.797,VALID,0,VALID,90.3222,VALID,59.415,VALID,21.79,VALID,122,VALID,1.30469,
2014-05-26, 07:07:04,VALID,916.789,VALID,0,VALID,90.246,VALID,61.0266,VALID,21.8095,VALID,111,VALID,1.90469,
2014-05-26, 07:08:04,VALID,916.759,VALID,0,VALID,89.7047,VALID,63.2828,VALID,21.8664,VALID,54,VALID,2.52695,
2014-05-26, 07:09:04,VALID,916.805,VALID,0,VALID,89.2473,VALID,65.8614,VALID,21.9656,VALID,75,VALID,0.535156,
2014-05-26, 07:10:04,VALID,916.81,VALID,0,VALID,89.1787,VALID,68.0102,VALID,22.0242,VALID,111,VALID,1.4418,
2014-05-26, 07:11:04,VALID,916.845,VALID,0,VALID,89.3922,VALID,71.4484,VALID,21.964,VALID,151,VALID,1.26953,
2014-05-26, 07:12:04,VALID,916.835,VALID,0,VALID,88.7213,VALID,74.3493,VALID,22.0437,VALID,96,VALID,2.25039,
2014-05-26, 07:13:04,VALID,916.817,VALID,0,VALID,87.7836,VALID,74.8865,VALID,22.1413,VALID,130,VALID,1.71758,
2014-05-26, 07:14:04,VALID,916.809,VALID,0,VALID,87.6769,VALID,76.0683,VALID,22.2567,VALID,115,VALID,1.35273,
2014-05-26, 07:15:04,VALID,916.813,VALID,0,VALID,87.7455,VALID,75.746,VALID,22.2779,VALID,100,VALID,1.53789,
2014-05-26, 07:16:04,VALID,916.788,VALID,0,VALID,88.0809,VALID,76.713,VALID,22.1981,VALID,122,VALID,1.70508,
2014-05-26, 07:17:04,VALID,916.839,VALID,0,VALID,88.5841,VALID,88.3166,VALID,22.1803,VALID,102,VALID,1.71797,
2014-05-26, 07:18:04,VALID,916.844,VALID,0,VALID,88.9119,VALID,140.748,VALID,22.1413,VALID,117,VALID,1.72656,
2014-05-26, 07:19:04,VALID,916.84,VALID,0,VALID,89.1711,VALID,152.781,VALID,22.1413,VALID,107,VALID,1.56641,
2014-05-26, 07:20:04,VALID,916.841,VALID,0,VALID,89.5065,VALID,156.757,VALID,22.1608,VALID,123,VALID,1.09844,
2014-05-26, 07:21:04,VALID,916.83,VALID,0,VALID,89.1787,VALID,158.476,VALID,22.1786,VALID,140,VALID,1.46719,
2014-05-26, 07:22:04,VALID,916.862,VALID,0,VALID,89.3846,VALID,158.368,VALID,22.2388,VALID,92,VALID,1.12617,
2014-05-26, 07:23:04,VALID,916.854,VALID,0,VALID,89.3998,VALID,159.013,VALID,22.2779,VALID,141,VALID,1.33164,
2014-05-26, 07:24:04,VALID,916.892,VALID,0,VALID,89.4303,VALID,161.484,VALID,22.3169,VALID,125,VALID,0.628516,
2014-05-26, 07:25:04,VALID,916.9,VALID,0,VALID,89.3541,VALID,167.608,VALID,22.3754,VALID,90,VALID,0.847266,
2014-05-26, 07:26:04,VALID,916.948,VALID,0,VALID,88.6832,VALID,172.98,VALID,22.4145,VALID,127,VALID,1.22695,
2014-05-26, 07:27:04,VALID,916.969,VALID,0,VALID,88.6984,VALID,174.807,VALID,22.434,VALID,132,VALID,1.12734,
2014-05-26, 07:28:04,VALID,917.039,VALID,0,VALID,88.6984,VALID,180.501,VALID,22.4925,VALID,125,VALID,0.7,
2014-05-26, 07:29:04,VALID,917.092,VALID,0,VALID,88.4164,VALID,182.435,VALID,22.5511,VALID,153,VALID,0.966016,
2014-05-26, 07:30:04,VALID,917.095,VALID,0,VALID,88.5002,VALID,189.204,VALID,22.6096,VALID,134,VALID,0.441797,
2014-05-26, 07:31:04,VALID,917.106,VALID,0,VALID,87.9209,VALID,198.551,VALID,22.6487,VALID,174,VALID,0.864844,
2014-05-26, 07:32:04,VALID,917.188,VALID,0,VALID,87.7989,VALID,208.973,VALID,22.7853,VALID,175,VALID,0.578516,
2014-05-26, 07:33:04,VALID,917.209,VALID,0,VALID,87.3872,VALID,223.048,VALID,22.9415,VALID,175,VALID,0.410547,
2014-05-26, 07:34:04,VALID,917.224,VALID,0,VALID,86.2132,VALID,233.47,VALID,23.0976,VALID,162,VALID,0.658203,
2014-05-26, 07:35:04,VALID,917.224,VALID,0,VALID,86.1522,VALID,240.453,VALID,23.2343,VALID,156,VALID,0.251563,
2014-05-26, 07:36:04,VALID,917.277,VALID,0,VALID,84.8944,VALID,244.106,VALID,23.3514,VALID,165,VALID,1.25586,
2014-05-26, 07:37:04,VALID,917.298,VALID,0,VALID,84.1778,VALID,241.528,VALID,23.41,VALID,158,VALID,0.927344,
2014-05-26, 07:38:04,VALID,917.296,VALID,0,VALID,83.7508,VALID,246.47,VALID,23.3904,VALID,185,VALID,1.26914,
2014-05-26, 07:39:04,VALID,917.284,VALID,0,VALID,84.5818,VALID,250.983,VALID,23.4082,VALID,180,VALID,0.321094,
2014-05-26, 07:40:04,VALID,917.289,VALID,0,VALID,83.1715,VALID,256.784,VALID,23.4295,VALID,162,VALID,1.30664,
2014-05-26, 07:41:04,VALID,917.299,VALID,0,VALID,84.4979,VALID,261.189,VALID,23.3691,VALID,160,VALID,1.44219,
2014-05-26, 07:42:04,VALID,917.308,VALID,0,VALID,83.2325,VALID,269.57,VALID,23.3496,VALID,168,VALID,1.06953,
2014-05-26, 07:43:04,VALID,917.306,VALID,0,VALID,83.5145,VALID,273.653,VALID,23.3887,VALID,168,VALID,0.799219,
2014-05-26, 07:44:04,VALID,917.329,VALID,0,VALID,83.2782,VALID,274.942,VALID,23.4667,VALID,160,VALID,0.759766,
2014-05-26, 07:45:04,VALID,917.338,VALID,0,VALID,82.7598,VALID,267.958,VALID,23.4845,VALID,166,VALID,0.455859,
2014-05-26, 07:46:04,VALID,917.353,VALID,0,VALID,82.897,VALID,260.76,VALID,23.5626,VALID,165,VALID,0.688672,
2014-05-26, 07:47:04,VALID,917.37,VALID,0,VALID,82.5768,VALID,256.14,VALID,23.662,VALID,156,VALID,0.841797,
2014-05-26, 07:48:04,VALID,917.383,VALID,0,VALID,84.3912,VALID,258.181,VALID,23.6992,VALID,99,VALID,1.14414,
2014-05-26, 07:49:04,VALID,917.378,VALID,0,VALID,84.3379,VALID,264.95,VALID,23.7773,VALID,95,VALID,0.902734,
2014-05-26, 07:50:04,VALID,917.413,VALID,0,VALID,83.0038,VALID,270.215,VALID,23.7596,VALID,100,VALID,1.82578,
2014-05-26, 07:51:04,VALID,917.42,VALID,0,VALID,82.9656,VALID,269.677,VALID,23.7028,VALID,77,VALID,1.89922,
2014-05-26, 07:52:04,VALID,917.412,VALID,0,VALID,82.6836,VALID,274.297,VALID,23.6034,VALID,91,VALID,1.36953,
2014-05-26, 07:53:04,VALID,917.47,VALID,0,VALID,83.5603,VALID,282.463,VALID,23.5661,VALID,86,VALID,1.20234,
2014-05-26, 07:54:04,VALID,917.487,VALID,0,VALID,84.4903,VALID,286.438,VALID,23.5661,VALID,128,VALID,1.08477,
2014-05-26, 07:55:04,VALID,917.538,VALID,0,VALID,84.6275,VALID,289.769,VALID,23.5643,VALID,115,VALID,0.602344,
2014-05-26, 07:56:04,VALID,917.561,VALID,0,VALID,85.1383,VALID,294.711,VALID,23.701,VALID,113,VALID,0.758984,
2014-05-26, 07:57:04,VALID,917.59,VALID,0,VALID,84.193,VALID,300.513,VALID,23.8181,VALID,142,VALID,0.695313,
2014-05-26, 07:58:04,VALID,917.589,VALID,0,VALID,82.775,VALID,300.943,VALID,23.8962,VALID,89,VALID,1.75469,
2014-05-26, 07:59:04,VALID,917.632,VALID,0,VALID,83.8347,VALID,303.521,VALID,23.8749,VALID,74,VALID,1.14648,
2014-05-26, 08:00:04,VALID,917.617,VALID,0,VALID,82.5006,VALID,302.984,VALID,23.8163,VALID,113,VALID,1.25391,
2014-05-26, 08:01:04,VALID,917.683,VALID,0,VALID,83.7051,VALID,308.356,VALID,23.7382,VALID,102,VALID,1.09336,
2014-05-26, 08:02:04,VALID,917.631,VALID,0,VALID,82.1652,VALID,315.232,VALID,23.701,VALID,155,VALID,1.51133,
2014-05-26, 08:03:04,VALID,917.625,VALID,0,VALID,83.2096,VALID,182.757,VALID,23.701,VALID,103,VALID,1.33984,
2014-05-26, 08:04:04,VALID,917.62,VALID,0,VALID,82.0813,VALID,304.488,VALID,23.6815,VALID,128,VALID,1.36719,
2014-05-26, 08:05:04,VALID,917.648,VALID,0,VALID,82.7979,VALID,132.475,VALID,23.6424,VALID,116,VALID,0.597656,
2014-05-26, 08:06:04,VALID,917.646,VALID,0,VALID,82.0508,VALID,111.094,VALID,23.6034,VALID,115,VALID,0.835938,
2014-05-26, 08:07:04,VALID,917.685,VALID,0,VALID,83.9186,VALID,108.301,VALID,23.5643,VALID,86,VALID,0.913281,
2014-05-26, 08:08:04,VALID,917.715,VALID,0,VALID,84.0558,VALID,107.011,VALID,23.5253,VALID,86,VALID,0.372266,
2014-05-26, 08:09:04,VALID,917.762,VALID,0,VALID,84.8562,VALID,105.507,VALID,23.5058,VALID,142,VALID,0.85625,
2014-05-26, 08:10:04,VALID,917.714,VALID,0,VALID,82.9123,VALID,101.532,VALID,23.3887,VALID,147,VALID,1.17344,
2014-05-26, 08:11:04,VALID,917.741,VALID,0,VALID,84.1244,VALID,99.1682,VALID,23.3283,VALID,79,VALID,1.50625,
2014-05-26, 08:12:04,VALID,917.75,VALID,0,VALID,84.1625,VALID,97.7714,VALID,23.2911,VALID,63,VALID,0.825,
2014-05-26, 08:13:04,VALID,917.715,VALID,0,VALID,85.2298,VALID,91.7547,VALID,23.2911,VALID,56,VALID,0.538672,
2014-05-26, 08:14:04,VALID,917.742,VALID,0,VALID,85.6338,VALID,81.8702,VALID,23.3301,VALID,56,VALID,0,
2014-05-26, 08:15:04,VALID,917.769,VALID,0,VALID,84.3912,VALID,71.5558,VALID,23.3088,VALID,100,VALID,0.549219,
2014-05-26, 08:16:04,VALID,917.729,VALID,0,VALID,84.597,VALID,63.4977,VALID,23.3106,VALID,100,VALID,0.591406,
2014-05-26, 08:17:04,VALID,917.72,VALID,0,VALID,83.3316,VALID,57.5885,VALID,23.252,VALID,118,VALID,0.488281,
2014-05-26, 08:18:04,VALID,917.74,VALID,0,VALID,84.0939,VALID,52.4313,VALID,23.252,VALID,118,VALID,0.582031,
2014-05-26, 08:19:04,VALID,917.732,VALID,0,VALID,84.9325,VALID,50.0676,VALID,23.2325,VALID,118,VALID,0.226953,
2014-05-26, 08:20:04,VALID,917.749,VALID,0,VALID,85.6033,VALID,48.9932,VALID,23.252,VALID,118,VALID,0.298828,
2014-05-26, 08:21:04,VALID,917.791,VALID,0,VALID,85.1383,VALID,49.208,VALID,23.2307,VALID,118,VALID,0.298828,
2014-05-26, 08:22:04,VALID,917.773,VALID,0,VALID,84.3226,VALID,51.4643,VALID,23.2325,VALID,118,VALID,0.662891,
2014-05-26, 08:23:04,VALID,917.809,VALID,0,VALID,84.8791,VALID,53.9355,VALID,23.1917,VALID,118,VALID,0.582812,
2014-05-26, 08:24:04,VALID,917.819,VALID,0,VALID,85.7101,VALID,54.795,VALID,23.1935,VALID,118,VALID,0.710938,
2014-05-26, 08:25:04,VALID,917.805,VALID,0,VALID,85.0849,VALID,54.6875,VALID,23.1154,VALID,138,VALID,0.876562,
2014-05-26, 08:26:04,VALID,917.879,VALID,0,VALID,85.1993,VALID,54.9024,VALID,23.0959,VALID,156,VALID,0.805469,
2014-05-26, 08:27:04,VALID,917.895,VALID,0,VALID,86.3885,VALID,55.3322,VALID,23.0763,VALID,122,VALID,0.895703,
2014-05-26, 08:28:04,VALID,917.904,VALID,0,VALID,86.2285,VALID,57.2661,VALID,23.0178,VALID,124,VALID,1.0207,
2014-05-26, 08:29:04,VALID,917.954,VALID,0,VALID,86.5563,VALID,58.7703,VALID,22.9592,VALID,127,VALID,0.836328,
2014-05-26, 08:30:04,VALID,917.941,VALID,0,VALID,86.7164,VALID,59.415,VALID,22.9202,VALID,32,VALID,1.28359,
2014-05-26, 08:31:04,VALID,917.972,VALID,0,VALID,87.0061,VALID,57.2661,VALID,22.9202,VALID,47,VALID,0.655859,
2014-05-26, 08:32:04,VALID,917.94,VALID,0,VALID,86.5791,VALID,54.1503,VALID,22.9007,VALID,147,VALID,0.920313,
2014-05-26, 08:33:04,VALID,917.957,VALID,0,VALID,86.5639,VALID,51.142,VALID,22.9007,VALID,147,VALID,0.641797,
2014-05-26, 08:34:04,VALID,918.018,VALID,0,VALID,86.4495,VALID,48.5634,VALID,22.9202,VALID,147,VALID,0.705859,
2014-05-26, 08:35:04,VALID,918.001,VALID,0,VALID,86.9756,VALID,46.3071,VALID,22.9007,VALID,161,VALID,1.06406,
2014-05-26, 08:36:04,VALID,918.034,VALID,0,VALID,86.6401,VALID,44.2658,VALID,22.8421,VALID,144,VALID,1.59727,
2014-05-26, 08:37:04,VALID,918.092,VALID,0,VALID,87.2271,VALID,44.2658,VALID,22.7836,VALID,156,VALID,0.805078,
2014-05-26, 08:38:04,VALID,918.055,VALID,0,VALID,87.7608,VALID,45.7699,VALID,22.725,VALID,141,VALID,0.560938,
2014-05-26, 08:39:04,VALID,918.082,VALID,0,VALID,87.9209,VALID,48.0262,VALID,22.6665,VALID,141,VALID,0.816797,
2014-05-26, 08:40:04,VALID,918.078,VALID,0,VALID,88.8509,VALID,51.3569,VALID,22.6452,VALID,141,VALID,0.219531,
2014-05-26, 08:41:04,VALID,918.101,VALID,0,VALID,88.9576,VALID,55.762,VALID,22.6062,VALID,141,VALID,0.578906,
2014-05-26, 08:42:04,VALID,918.099,VALID,0.2,VALID,88.7213,VALID,60.4894,VALID,22.5281,VALID,141,VALID,0.559375,
2014-05-26, 08:43:04,VALID,918.083,VALID,0.2,VALID,88.4088,VALID,64.8945,VALID,22.4908,VALID,141,VALID,0.40625,
2014-05-26, 08:44:04,VALID,918.09,VALID,0,VALID,88.3249,VALID,70.2665,VALID,22.4501,VALID,141,VALID,0.325391,
2014-05-26, 08:45:04,VALID,918.094,VALID,0.2,VALID,88.2258,VALID,74.9939,VALID,22.4306,VALID,141,VALID,0.01875,
2014-05-26, 08:46:04,VALID,918.078,VALID,0,VALID,88.7823,VALID,79.1841,VALID,22.4891,VALID,141,VALID,0.388281,
2014-05-26, 08:47:04,VALID,918.12,VALID,0,VALID,88.3706,VALID,82.6222,VALID,22.473,VALID,141,VALID,0.660156,
2014-05-26, 08:48:04,VALID,918.089,VALID,0,VALID,87.4939,VALID,84.8785,VALID,22.473,VALID,156,VALID,0.221094,
2014-05-26, 08:49:04,VALID,918.128,VALID,0,VALID,86.9984,VALID,84.986,VALID,22.473,VALID,154,VALID,0.351172,
2014-05-26, 08:50:04,VALID,918.127,VALID,0,VALID,87.067,VALID,84.019,VALID,22.4908,VALID,154,VALID,0.287109,
2014-05-26, 08:51:04,VALID,918.163,VALID,0,VALID,88.0428,VALID,83.2669,VALID,22.5511,VALID,154,VALID,0.439453,
2014-05-26, 08:52:04,VALID,918.167,VALID,0,VALID,88.546,VALID,83.9115,VALID,22.5901,VALID,154,VALID,0.517578,
2014-05-26, 08:53:04,VALID,918.146,VALID,0,VALID,89.0567,VALID,86.5976,VALID,22.6292,VALID,154,VALID,0.364062,
2014-05-26, 08:54:04,VALID,918.164,VALID,0,VALID,88.6146,VALID,92.6143,VALID,22.6096,VALID,154,VALID,0.430078,
2014-05-26, 08:55:04,VALID,918.12,VALID,0,VALID,88.5765,VALID,102.177,VALID,22.5884,VALID,154,VALID,0.441406,
2014-05-26, 08:56:04,VALID,918.166,VALID,0,VALID,88.485,VALID,110.879,VALID,22.5689,VALID,154,VALID,0.302734,
2014-05-26, 08:57:04,VALID,918.168,VALID,0,VALID,88.8585,VALID,117.648,VALID,22.6079,VALID,153,VALID,0.575391,
2014-05-26, 08:58:04,VALID,918.134,VALID,0,VALID,89.3846,VALID,121.516,VALID,22.6079,VALID,119,VALID,0.393359,
2014-05-26, 08:59:04,VALID,918.136,VALID,0,VALID,88.5688,VALID,123.772,VALID,22.6079,VALID,119,VALID,0.389844,
2014-05-26, 09:00:04,VALID,918.111,VALID,0,VALID,89.5828,VALID,124.095,VALID,22.6257,VALID,118,VALID,0.729688,
2014-05-26, 09:01:04,VALID,918.085,VALID,0,VALID,90.0249,VALID,123.88,VALID,22.686,VALID,119,VALID,0.982813,
2014-05-26, 09:02:04,VALID,918.138,VALID,0,VALID,88.6375,VALID,125.169,VALID,22.6062,VALID,32,VALID,1.10547,
2014-05-26, 09:03:04,VALID,918.112,VALID,0,VALID,87.837,VALID,129.252,VALID,22.6079,VALID,48,VALID,1.17695,
2014-05-26, 09:04:04,VALID,918.088,VALID,0,VALID,87.1204,VALID,137.954,VALID,22.6062,VALID,14,VALID,0.575781,
2014-05-26, 09:05:04,VALID,918.098,VALID,0,VALID,88.0352,VALID,149.128,VALID,22.7055,VALID,21,VALID,0.810156,
2014-05-26, 09:06:04,VALID,918.074,VALID,0,VALID,88.1343,VALID,157.186,VALID,22.7445,VALID,26,VALID,0.529688,
2014-05-26, 09:07:04,VALID,918.1,VALID,0,VALID,88.4774,VALID,164.278,VALID,22.7428,VALID,51,VALID,1.05508,
2014-05-26, 09:08:04,VALID,918.115,VALID,0,VALID,87.8599,VALID,169.112,VALID,22.7233,VALID,69,VALID,0.477734,
2014-05-26, 09:09:04,VALID,918.102,VALID,0,VALID,87.5626,VALID,172.336,VALID,22.7428,VALID,69,VALID,0.394922,
2014-05-26, 09:10:04,VALID,918.118,VALID,0,VALID,87.2347,VALID,175.559,VALID,22.7836,VALID,38,VALID,0.548047,
2014-05-26, 09:11:04,VALID,918.068,VALID,0,VALID,87.8599,VALID,180.823,VALID,22.8209,VALID,37,VALID,0.539844,
2014-05-26, 09:12:04,VALID,918.074,VALID,0,VALID,89.2626,VALID,187.915,VALID,22.9397,VALID,37,VALID,0.132031,
2014-05-26, 09:13:04,VALID,918.079,VALID,0,VALID,88.4164,VALID,193.931,VALID,22.977,VALID,37,VALID,0.105859,
2014-05-26, 09:14:04,VALID,918.06,VALID,0,VALID,87.1661,VALID,199.196,VALID,23.0568,VALID,37,VALID,0.182812,
2014-05-26, 09:15:04,VALID,918.081,VALID,0,VALID,85.7253,VALID,204.246,VALID,23.1136,VALID,37,VALID,0.280078,
2014-05-26, 09:16:04,VALID,918.102,VALID,0,VALID,86.1294,VALID,209.403,VALID,23.213,VALID,38,VALID,0.208594,
2014-05-26, 09:17:04,VALID,918.146,VALID,0,VALID,85.245,VALID,218.106,VALID,23.2112,VALID,63,VALID,0.798828,
2014-05-26, 09:18:04,VALID,918.146,VALID,0,VALID,87.128,VALID,228.42,VALID,23.2715,VALID,63,VALID,0.326562,
2014-05-26, 09:19:04,VALID,918.137,VALID,0,VALID,87.6235,VALID,255.602,VALID,23.3301,VALID,63,VALID,0.256641,
2014-05-26, 09:20:04,VALID,918.136,VALID,0,VALID,87.8904,VALID,657.11,VALID,23.4082,VALID,72,VALID,0.534766,
2014-05-26, 09:21:04,VALID,918.132,VALID,0,VALID,85.3518,VALID,295.356,VALID,23.4863,VALID,71,VALID,0.913281,
2014-05-26, 09:22:04,VALID,918.129,VALID,0,VALID,86.2513,VALID,291.595,VALID,23.5253,VALID,49,VALID,0.486719,
2014-05-26, 09:23:04,VALID,918.105,VALID,0,VALID,85.8778,VALID,307.282,VALID,23.504,VALID,82,VALID,0.0730469,
2014-05-26, 09:24:04,VALID,918.112,VALID,0,VALID,85.6796,VALID,464.898,VALID,23.6211,VALID,61,VALID,0.579297,
2014-05-26, 09:25:04,VALID,918.148,VALID,0,VALID,85.2832,VALID,288.372,VALID,23.74,VALID,43,VALID,0.376563,
2014-05-26, 09:26:04,VALID,918.121,VALID,0,VALID,84.4065,VALID,250.553,VALID,23.7968,VALID,43,VALID,0.370313,
2014-05-26, 09:27:04,VALID,918.12,VALID,0,VALID,85.5424,VALID,222.833,VALID,23.8749,VALID,43,VALID,0.633984,
2014-05-26, 09:28:04,VALID,918.094,VALID,0,VALID,85.1154,VALID,207.039,VALID,23.8944,VALID,43,VALID,0.330469,
2014-05-26, 09:29:04,VALID,918.093,VALID,0,VALID,85.1688,VALID,197.047,VALID,23.9335,VALID,44,VALID,0,
2014-05-26, 09:30:04,VALID,918.107,VALID,0,VALID,86.0607,VALID,186.518,VALID,24.0329,VALID,43,VALID,0.345703,
2014-05-26, 09:31:04,VALID,918.079,VALID,0,VALID,84.7571,VALID,181.253,VALID,24.0311,VALID,320,VALID,1.53633,
2014-05-26, 09:32:04,VALID,918.096,VALID,0,VALID,84.7876,VALID,181.253,VALID,24.0115,VALID,107,VALID,1.56953,
2014-05-26, 09:33:04,VALID,918.096,VALID,0,VALID,85.4128,VALID,175.774,VALID,23.9548,VALID,170,VALID,1.06445,
2014-05-26, 09:34:04,VALID,918.107,VALID,0,VALID,84.071,VALID,173.625,VALID,23.8358,VALID,155,VALID,0.757813,
2014-05-26, 09:35:04,VALID,918.135,VALID,0,VALID,84.6962,VALID,152.566,VALID,23.8554,VALID,59,VALID,1.39961,
2014-05-26, 09:36:04,VALID,918.102,VALID,0,VALID,84.2159,VALID,136.558,VALID,23.7773,VALID,81,VALID,2.39961,
2014-05-26, 09:37:04,VALID,918.125,VALID,0,VALID,84.1091,VALID,125.276,VALID,23.6584,VALID,78,VALID,1.91172,
2014-05-26, 09:38:04,VALID,918.188,VALID,0,VALID,85.7101,VALID,115.392,VALID,23.6211,VALID,100,VALID,1.36289,
2014-05-26, 09:39:04,VALID,918.174,VALID,0,VALID,86.015,VALID,108.623,VALID,23.543,VALID,80,VALID,1.55703,
2014-05-26, 09:40:04,VALID,918.177,VALID,0,VALID,85.7177,VALID,106.797,VALID,23.465,VALID,75,VALID,1.68633,
2014-05-26, 09:41:04,VALID,918.196,VALID,0,VALID,84.9782,VALID,112.921,VALID,23.3869,VALID,123,VALID,1.53164,
2014-05-26, 09:42:04,VALID,918.194,VALID,0,VALID,86.0684,VALID,118.83,VALID,23.3265,VALID,88,VALID,1.22422,
2014-05-26, 09:43:04,VALID,918.214,VALID,0,VALID,85.3975,VALID,122.375,VALID,23.3088,VALID,121,VALID,1.57031,
2014-05-26, 09:44:04,VALID,918.195,VALID,0,VALID,84.7038,VALID,124.202,VALID,23.2502,VALID,117,VALID,1.89023,
2014-05-26, 09:45:04,VALID,918.198,VALID,0,VALID,85.1841,VALID,127.855,VALID,23.1899,VALID,136,VALID,1.36836,
2014-05-26, 09:46:04,VALID,918.18,VALID,0,VALID,85.4814,VALID,132.475,VALID,23.1722,VALID,104,VALID,2.03008,
2014-05-26, 09:47:04,VALID,918.189,VALID,0,VALID,86.0379,VALID,135.698,VALID,23.1544,VALID,54,VALID,1.80156,
2014-05-26, 09:48:04,VALID,918.177,VALID,0,VALID,86.198,VALID,137.632,VALID,23.1544,VALID,116,VALID,1.49844,
2014-05-26, 09:49:04,VALID,918.216,VALID,0,VALID,86.724,VALID,140.748,VALID,23.1544,VALID,102,VALID,1.41016,
2014-05-26, 09:50:04,VALID,918.194,VALID,0,VALID,85.2755,VALID,143.756,VALID,23.0959,VALID,117,VALID,1.54336,
2014-05-26, 09:51:04,VALID,918.208,VALID,0,VALID,86.2285,VALID,150.095,VALID,23.1154,VALID,84,VALID,1.66875,
2014-05-26, 09:52:04,VALID,918.175,VALID,0,VALID,86.6172,VALID,160.839,VALID,23.1154,VALID,94,VALID,0.951563,
2014-05-26, 09:53:04,VALID,918.166,VALID,0,VALID,85.7177,VALID,171.584,VALID,23.0941,VALID,125,VALID,1.60586,
2014-05-26, 09:54:04,VALID,918.195,VALID,0,VALID,85.2755,VALID,182.328,VALID,23.1154,VALID,101,VALID,1.45664,
2014-05-26, 09:55:04,VALID,918.194,VALID,0,VALID,86.2132,VALID,189.741,VALID,23.1349,VALID,94,VALID,0.618359,
2014-05-26, 09:56:04,VALID,918.201,VALID,0,VALID,85.9769,VALID,192.212,VALID,23.1739,VALID,128,VALID,0.567578,
2014-05-26, 09:57:04,VALID,918.205,VALID,0,VALID,84.3683,VALID,187.592,VALID,23.2147,VALID,124,VALID,1.76016,
2014-05-26, 09:58:04,VALID,918.205,VALID,0,VALID,84.1473,VALID,181.898,VALID,23.2325,VALID,172,VALID,1.06133,
2014-05-26, 09:59:04,VALID,918.258,VALID,0,VALID,84.6885,VALID,174.377,VALID,23.2698,VALID,114,VALID,1.04922,
2014-05-26, 10:00:04,VALID,918.285,VALID,0,VALID,85.6491,VALID,172.443,VALID,23.3088,VALID,118,VALID,0.487109,
2014-05-26, 10:01:04,VALID,918.273,VALID,0,VALID,85.0697,VALID,176.418,VALID,23.3496,VALID,158,VALID,0.908594,
2014-05-26, 10:02:04,VALID,918.287,VALID,0,VALID,85.0087,VALID,182.543,VALID,23.3691,VALID,170,VALID,0.914844,
2014-05-26, 10:03:04,VALID,918.278,VALID,0,VALID,84.6809,VALID,186.303,VALID,23.3887,VALID,154,VALID,1.01602,
2014-05-26, 10:04:04,VALID,918.303,VALID,0,VALID,84.2692,VALID,184.906,VALID,23.3691,VALID,143,VALID,0.610547,
2014-05-26, 10:05:04,VALID,918.314,VALID,0,VALID,85.5576,VALID,178.137,VALID,23.4082,VALID,158,VALID,1.43594,
2014-05-26, 10:06:04,VALID,918.338,VALID,0,VALID,83.8652,VALID,169.972,VALID,23.3496,VALID,152,VALID,0.855859,